Torna al catalogo

SL-8 DEB

AttivoLEO
NORAD 21936·DEBRIS·🇷🇺 Russia

Lanciato Feb 12, 1991 da Plesetsk Cosmodrome

Loading…

Prossimi Passaggi (prossime 24 ore)

TLE

AggiornatoSource: Space-Track

Epoca: Sep 14, 2026, 10:26 UTC

1 21936U 91009CD  26257.43497756 -.00000012  00000-0  46575-5 0  9993
2 21936  74.0641 314.0271 0261650  74.3866 302.0451 12.01231349519474

Traccia SL-8 DEB in tempo reale con AllMySat

Download on the App Store